www.pogodaiklimat.ru

Погода и климат >> Архив погоды >> Россия >> Чукотка >> Илирней


АРХИВ ПОГОДЫ в Илирнее

Время (UTC), дата Ветер
(напр.,м/с)
 
Видим.   Явления Облачность Т
(С)
Тd
(С)
f
(%)
Тe
(С)
Тes
(С)
Комфортность P
(гПа)
Po
(гПа)
Тmin
(С)
Tmax
(С)
R
(мм)
R24
(мм)
S
(см)
00 18.03 З 2
{10}
20 км позёмок 10/0
[Ac und]
-20.6 -24.6 70 -27 -26 1008.7 961.6
03 18.03 З 5
{10}
20 км позёмок 10/0
[Ac und]
-20.0 -24.9 65 -30 -30 1007.9 961.0
06 18.03 З 2
{5}
50 км {метель} 10/0
[Cs]
-20.6 -26.3 60 -27 -26 1006.0 959.0
09 18.03 ЮЗ 1
{5}
20 км слаб. снег 10/0
[As op]
-22.3 -26.2 70 -26 -26 1006.4 959.2 -20.0 0.0
12 18.03 З 2
{5}
20 км слаб. снег 10/0
[As op]
-22.9 -26.1 75 -29 -29 1006.5 959.1
15 18.03 З 2
{5}
20 км слаб. снег 10/0
[As op]
-23.7 -26.8 76 -30 -30 1006.6 959.0
18 18.03 З 3
{6}
20 км слаб. снег 10/0
[As op]
-24.2 -26.6 80 -33 -33 опасность
обморожения
1007.0 959.4
21 18.03 З 4
{10}
20 км позёмок {снег} 10/0
[As op]
-23.1 -26.3 75 -33 -33 опасность
обморожения
1008.0 960.6 -24.2 0.6 68
00 19.03 З 5
{8}
20 км позёмок 10/0
[As op]
-21.6 -25.6 70 -32 -32 опасность
обморожения
1009.4 962.1
03 19.03 ЮЗ 6-9
{11}
20 км позёмок 10/0
[Ac As Cs]
-20.2 -24.3 70 -31 -31 опасность
обморожения
1010.2 963.2
06 19.03 З 5-9
{11}
20 км позёмок 10/0
[Ac und]
-21.0 -25.0 70 -31 -31 опасность
обморожения
1010.3 965.0
09 19.03 З 5-9
{13}
20 км позёмок 10/0
[Ac und]
-22.4 -25.6 75 -33 -33 опасность
обморожения
1016.3 966.8 -20.2
12 19.03 ЮЗ 5-8
{11}
20 км позёмок 10/0
[Ac und]
-23.4 -26.6 75 -34 -34 опасность
обморожения
1015.7 967.9
15 19.03 З 7-10
{14}
20 км позёмок 10/0
[Ac und]
-23.9 -27.1 75 -37 -37 опасность
обморожения
1016.5 968.5
18 19.03 З 5
{10}
20 км позёмок 10/0
[Ac und]
-24.5 -27.7 75 -36 -36 опасность
обморожения
1018.4 970.3
21 19.03 З 5
{10}
20 км позёмок 10/0
[Ac und]
-24.0 -27.3 74 -35 -35 опасность
обморожения
1019.9 971.8 -24.5 68
00 20.03 СЗ 5
{10}
50 км позёмок 10/8 600 м
[Sc Ac As]
-21.8 -25.0 75 -32 -32 опасность
обморожения
1021.1 973.2
03 20.03 З 3
{8}
50 км позёмок 9/0
[Cs]
-21.5 -28.1 55 -29 -28 1021.6 973.9
06 20.03 ЮЗ 2
{8}
50 км ледяные иглы {метель} 10/0
[Cs]
-21.8 -28.4 55 -28 -28 1023.6 975.6
09 20.03 ЮЗ 1
{5}
20 км {метель} 8/0
[Cs]
-24.7 -30.2 60 -28 -28 1026.3 977.7 -21.5
12 20.03 В 1
{5}
20 км 4/0
[Cs]
-32.5 -36.1 70 -37 -37 опасность
обморожения
1029.9 979.5
15 20.03 В 1
{3}
20 км ясно -35.4 -38.3 75 -40 -40 опасность
обморожения
1031.4 980.6
18 20.03 штиль 0 20 км ясно -37.6 -40.5 74 -38 -38 опасность
обморожения
1033.3 981.7
21 20.03 штиль 0 50 км 8/0
[Cs]
-34.8 -37.7 75 -35 -34 опасность
обморожения
1033.1 982.2 -37.6 68
00 21.03 штиль 0
{1}
50 км 10/0
[Cs]
-26.8 -30.7 69 -27 -23 1031.3 982.1
03 21.03 СВ 2
{4}
50 км 3/0
[Cs]
-25.1 -29.8 65 -32 -29 опасность
обморожения
1029.5 980.8
06 21.03 С 1
{3}
50 км ясно -25.8 -29.7 70 -29 -29 1029.4 980.5
09 21.03 штиль 0
{3}
20 км ясно -28.5 -29.8 89 -29 -29 1020.4 981.0 -20.4
12 21.03 штиль 0
{2}
20 км 8/0
[Ac As]
-30.5 -32.7 81 -31 -31 опасность
обморожения
1029.8 979.8
15 21.03 штиль 0
{3}
20 км 10/0
[Ac und]
-32.8 -35.1 80 -33 -33 опасность
обморожения
1030.2 979.8
18 21.03 штиль 0 50 км 10/0
[Ac und]
-33.3 -35.6 80 -33 -33 опасность
обморожения
1031.0 980.6
21 21.03 штиль 0
{1}
50 км 4/0
[Ci]
-33.0 -36.0 74 -33 -32 опасность
обморожения
1031.1 980.7 -33.3 68
00 22.03 штиль 0
{1}
50 км ясно -30.0 -33.7 70 -30 -25 1030.4 980.6
03 22.03 ЮВ 1
{2}
50 км ясно -23.8 -28.5 65 -27 -24 1028.6 980.1
06 22.03 штиль 0
{2}
50 км ясно -30.0 -33.7 70 -30 -30 1030.4 980.6
09 22.03 штиль 0
{1}
20 км ясно -33.0 -36.0 74 -33 -33 опасность
обморожения
1031.2 980.8 -28.5
12 22.03 штиль 0
{1}
20 км ясно -34.4 -37.4 74 -34 -34 опасность
обморожения
1030.9 980.3
15 22.03 штиль 0
{1}
20 км ясно -35.6 -37.1 86 -36 -36 опасность
обморожения
1030.8 979.6
18 22.03 штиль 0
{1}
50 км ясно -35.9 -38.6 76 -36 -36 опасность
обморожения
1029.8 978.9
21 22.03 штиль 0
{1}
50 км ясно -34.1 -37.1 74 -34 -32 опасность
обморожения
1028.6 978.1 -35.9 68
00 23.03 штиль 0
{2}
50 км ясно -30.1 -34.6 65 -30 -25 1026.5 976.9
03 23.03 штиль 0
{2}
50 км ясно -20.9 -27.6 55 -21 -17 1022.3 974.6
06 23.03 В 1
{2}
50 км ясно -19.8 -26.5 55 -23 -23 1020.8 973.3
09 23.03 штиль 0
{1}
20 км ясно -28.2 -32.8 65 -28 -28 1021.7 972.7 -19.8
12 23.03 штиль 0
{1}
20 км ясно -33.9 -37.5 70 -34 -34 опасность
обморожения
1022.2 972.0
15 23.03 штиль 0
{1}
20 км ясно -36.7 -39.7 74 -37 -37 опасность
обморожения
1021.3 970.5
18 23.03 штиль 0 20 км ясно -38.1 -40.9 75 -38 -38 опасность
обморожения
1020.3 969.3
21 23.03 штиль 0 50 км 5/0
[Cs]
-34.7 -37.7 74 -35 -33 опасность
обморожения
1018.1 967.9 -38.1 65
00 24.03 ЮВ 1
{2}
50 км 4/0
[Cs]
-28.4 -33.8 60 -32 -28 опасность
обморожения
1014.5 965.9
03 24.03 ЮВ 1
{2}
50 км 6/0
[Cs]
-20.2 -28.0 50 -23 -20 1010.8 963.8
06 24.03 В 1
{2}
50 км 10/0
[Cs]
-16.0 -26.5 40 -19 -18 1008.8 962.7
09 24.03 штиль 0
{1}
20 км 6/0
[Cs]
-25.6 -31.2 59 -26 -26 1010.5 962.5 -16.0
12 24.03 штиль 0 20 км ясно -32.4 -35.5 74 -32 -32 опасность
обморожения
1011.1 961.8
15 24.03 В 1
{2}
20 км 5/0
[Ac trans]
-34.9 -37.7 75 -40 -40 опасность
обморожения
1011.0 961.1
18 24.03 СВ 1
{2}
20 км 3/0
[Ac trans]
-35.8 -38.0 80 -41 -41 опасность
обморожения
1010.1 960.1
21 24.03 штиль 0
{1}
50 км 8/0
[Ac trans Cs]
-31.6 -34.5 75 -32 -30 опасность
обморожения
1008.0 958.9 -35.8 63

 

Местоположение метеостанции Илирней (Чукотка, Россия): широта 67.25 долгота 167.90 высота над уровнем моря 354 м.

В архиве по умолчанию представлена погода в Илирнее за последнюю неделю. Архивные данные за месяц целиком и за предыдущие месяцы, начиная с января 2011 года, Вы можете получить, выбрав интересующий диапазон дат из раскрывающегося списка и нажав кнопку "Ввод!".


*Определитесь, кто Вы:
робот инопланетянин человек

Внимание! Время в таблицах - всемирное. Для получения местного времени необходимо прибавить поправку, которая равна 12 ч.

Смотрите также архив погоды в соседних городах и на ближайших метеорологических станциях:

Погода в Билибино (Чукотка, Россия) (109 км)
Погода в Баимке (Чукотка, Россия) (180 км)
Погода в Островном (Чукотка, Россия) (187 км)
Погода в Чауне (Чукотка, Россия) (215 км)
Погода в Эньмувееме (Чукотка, Россия) (255 км)
Погода в Раучуе (Чукотка, Россия) (257 км)
Погода в Майской (Чукотка, Россия) (276 км)
Погода в Певеке (Чукотка, Россия) (288 км)
Погода на 21 км (Чукотка, Россия) (290 км)
Погода в Комсомольской (Чукотка, Россия) (291 км)

Пояснения к столбцам:

Ветер - указаны скорость ветра в м/с - средняя за 10 мин, порывы в срок и между сроками (в фигурных скобках) и направление, откуда дует ветер: С - северный, СВ - северо-восточный, В - восточный, ЮВ - юго-восточный, Ю - южный, ЮЗ - юго-западный, З - западный, СЗ - северо-западный.
Видимость - горизонтальная дальность видимости в метрах или километрах. При видимости от 1 до 10 км при отсутствии осадков обычно наблюдается дымка, при ухудшении видимости до 1 км и менее - туман. В сухую погоду видимость может ухудшаться дымом, пылью или мглою.
Явления - указаны атмосферные явления, наблюдавшиеся в срок или в последний час перед сроком; фигурными скобками обозначены явления, наблюдавшиеся между сроками (за 1-3 часа до срока); квадратными скобками обозначены град или гололедные отложения с указанием их диаметра в мм.
Облачность - указаны через наклонную черту общая и нижняя облачность в баллах и высота нижней границы облаков в метрах; квадратными скобками обозначены формы облаков: Ci - перистые, Cs - перисто-слоистые, Cc - перисто-кучевые, Ac - высококучевые, As - высокослоистые, Sc - слоисто-кучевые, Ns - слоисто-дождевые, Cu - кучевые, Cb - кучево-дождевые. Подробнее классификацию облаков см. в Атласе облаков (PDF).
T - Температура воздуха - температура, измеренная на высоте 2 м над землей.
Td - Температура точки росы - температура, при понижении до которой содержащийся в воздухе водяной пар достигнет насыщения.
f - Относительная влажность воздуха - влажноcть воздуха, измеренная на высоте 2 м над землей.
Te - Эффективная температура - температура, которую ощущает одетый по сезону человек в тени. Характеристика душности погоды. При расчете учитывается влияние влажности воздуха и скорости ветра на теплоощущения человека.
Tes - Эффективная температура на солнце - температура, которую ощущает человек, с поправкой на солнечный нагрев. Характеристика знойности погоды. Зависит от высоты солнца над горизонтом, облачности и скорости ветра. Ночью, в пасмурную погоду, а также при ветре 12 м/с и более поправка равна нулю.
P - Атмосферное давление - приведенное к уровню моря атмосферное давление.
Po - Атмосферное давление - измеренное на уровне метеостанции атмосферное давление.
Tmin - Минимальная температура - минимум температуры воздуха на высоте 2 м над землей.
Tmax - Максимальная температура - максимум температуры воздуха на высоте 2 м над землей.
R - Количество осадков - Количество выпавших осадков за период времени, мм. При наведении курсора мыши на число - период времени, за который выпало указанное количество осадков.
R24 - Количество осадков - Количество выпавших осадков за 24 часа, мм.
S - Снежный покров - Высота снежного покрова, см. При наведении курсора мыши на число - состояние снежного покрова и степень покрытия местности в баллах.